User: anonymous   Login
Location: Campo Alegre
(10.1673°N, 67.4431°W)
Time: 19:32:22
(UTC+00:00)
Language:

CZ-3 R/B - Orbit

View from above orbital plane
View from above orbital plane
View from above satellite
View from above satellite

Ground track
Ground track

The orbit data is extracted from the following two-line orbital elements,

1 29517U 06048B   24166.28305530  .00000438  00000-0  37736-3 0  9991
2 29517  28.2835 131.2955 4108839 272.8508  42.1966  6.89383285343241
Epoch (UTC): 14 June 2024 06:47:35
Eccentricity: 0.4108839
inclination: 28.2835°
perigee height: 492 km
apogee height: 10075 km
right ascension of ascending node: 131.2955°
argument of perigee: 272.8508°
revolutions per day: 6.89383285
mean anomaly at epoch: 42.1966°
orbit number at epoch: 34324

The dashed part of the orbit path shows where the satellite is in the earth's shadow,  

DLR